FW3021 Weather Reports


Display with metric or nautical units.
time (UTC)temp
F
wind
direction
speed
MPH
gust
MPH
rain 1hr
in
rain 24hr
in
rain mn
in
humidity
%
barometer
mb
20260902011516 67 0 2.0 4.0 0.00 0.00 0.00 63 1010.7
20260902010516 67 248 2.0 3.0 0.00 0.00 0.00 64 1010.5
20260902005536 68 248 2.0 3.0 0.00 0.00 0.00 63 1010.3
20260902004516 69 248 2.0 3.0 0.00 0.00 0.00 62 1010.3
20260902003516 70 248 2.0 3.0 0.00 0.00 0.00 61 1010.3
20260902002516 72 248 2.0 3.0 0.00 0.00 0.00 60 1010.4
20260902001516 73 248 1.0 3.0 0.00 0.00 0.00 57 1010.4
20260902000516 74 248 1.0 3.0 0.00 0.00 0.00 55 1010.4
20260901235516 75 248 1.0 2.0 0.00 0.00 0.00 51 1010.3
20260901234516 76 0 1.0 3.0 0.00 0.00 0.00 46 1010.2
20260901233516 77 0 1.0 3.0 0.00 0.00 0.00 45 1010.1
20260901232516 77 0 1.0 4.0 0.00 0.00 0.00 45 1010.0
20260901231516 78 0.0 2.0 0.00 0.00 0.00 42 1009.8
20260901230516 78 0.0 2.0 0.00 0.00 0.00 41 1009.8
20260901225516 79 0 2.0 5.0 0.00 0.00 0.00 39 1009.9
20260901224516 80 0 2.0 5.0 0.00 0.00 0.00 37 1009.9
20260901223516 80 0 3.0 9.0 0.00 0.00 0.00 35 1009.7
20260901222516 81 0 2.0 6.0 0.00 0.00 0.00 35 1009.8
20260901221516 82 0 3.0 10.0 0.00 0.00 0.00 34 1009.8
20260901220536 82 0 2.0 7.0 0.00 0.00 0.00 34 1009.7
20260901215516 83 0 4.0 11.0 0.00 0.00 0.00 34 1009.8
20260901214536 83 0 2.0 6.0 0.00 0.00 0.00 34 1009.8
20260901213516 82 0 3.0 11.0 0.00 0.00 0.00 33 1009.9
20260901212536 82 0 2.0 11.0 0.00 0.00 0.00 34 1009.8
20260901211516 83 0 4.0 16.0 0.00 0.00 0.00 32 1009.7
20260901210516 83 0 5.0 14.0 0.00 0.00 0.00 32 1009.7
20260901205516 83 0 5.0 17.0 0.00 0.00 0.00 32 1009.7
20260901204516 83 0 6.0 13.0 0.00 0.00 0.00 32 1009.7
20260901203516 83 0 4.0 12.0 0.00 0.00 0.00 33 1009.7
20260901202516 83 0 4.0 11.0 0.00 0.00 0.00 32 1009.7
20260901201536 83 0 3.0 5.0 0.00 0.00 0.00 34 1009.7
20260901200516 83 0 3.0 10.0 0.00 0.00 0.00 34 1009.7
20260901195516 84 0 3.0 10.0 0.00 0.00 0.00 33 1009.8
20260901194516 85 0 4.0 10.0 0.00 0.00 0.00 32 1009.9
20260901193516 83 0 3.0 9.0 0.00 0.00 0.00 35 1009.9
20260901192515 79 0 5.0 13.0 0.00 0.00 0.00 41 1009.9
20260901191516 75 0 5.0 15.0 0.00 0.00 0.00 58 1009.9
20260901190515 69 0 5.0 11.0 0.00 0.00 0.00 71 1009.9
20260901185536 69 0 8.0 14.0 0.00 0.00 0.00 70 1010.2
20260901184515 72 0 5.0 13.0 0.00 0.00 0.00 66 1010.3
20260901183515 71 0 4.0 15.0 0.00 0.00 0.00 67 1010.2
20260901182515 69 0 8.0 13.0 0.00 0.00 0.00 71 1010.3
20260901181515 69 0 8.0 16.0 0.00 0.00 0.00 71 1010.3
20260901180515 69 0 6.0 13.0 0.00 0.00 0.00 70 1010.3
20260901175515 70 0 5.0 11.0 0.00 0.00 0.00 68 1010.4
20260901174517 68 0 8.0 14.0 0.00 0.00 0.00 71 1010.2
20260901173537 68 0 7.0 14.0 0.00 0.00 0.00 71 1010.4
20260901172517 68 0 8.0 18.0 0.00 0.00 0.00 73 1010.5
20260901171515 67 0 8.0 13.0 0.00 0.00 0.00 74 1010.6
20260901170537 68 0 9.0 14.0 0.00 0.00 0.00 72 1010.6
20260901165517 68 0 7.0 15.0 0.00 0.00 0.00 72 1011.1
20260901164518 68 0 8.0 15.0 0.00 0.00 0.00 72 1011.2
20260901163557 68 0 8.0 16.0 0.00 0.00 0.00 73 1011.4
20260901162557 67 0 10.0 18.0 0.00 0.00 0.00 74 1011.4
20260901161517 67 0 9.0 15.0 0.00 0.00 0.00 74 1011.5
20260901160517 67 0 9.0 17.0 0.00 0.00 0.00 74 1011.6
20260901155517 66 0 8.0 19.0 0.00 0.00 0.00 74 1011.5
20260901154517 67 0 7.0 13.0 0.00 0.00 0.00 74 1011.5
20260901153517 66 0 8.0 13.0 0.00 0.00 0.00 75 1011.4
20260901152517 66 0 8.0 15.0 0.00 0.00 0.00 76 1011.3
20260901151517 66 0 6.0 13.0 0.00 0.00 0.00 76 1011.4
20260901150517 65 0 7.0 12.0 0.00 0.00 0.00 77 1011.4
20260901145517 65 0 5.0 10.0 0.00 0.00 0.00 77 1011.4
20260901144517 65 0 8.0 12.0 0.00 0.00 0.00 76 1011.3
20260901143517 65 0 7.0 12.0 0.00 0.00 0.00 76 1011.2
20260901142517 66 0 8.0 14.0 0.00 0.00 0.00 73 1011.2
20260901141517 67 0 9.0 15.0 0.00 0.00 0.00 71 1011.0
20260901140517 69 0 4.0 10.0 0.00 0.00 0.00 67 1011.0
20260901135517 70 0 6.0 12.0 0.00 0.00 0.00 63 1011.3
20260901134517 73 0 2.0 6.0 0.00 0.00 0.00 62 1011.4
20260901133517 72 0 2.0 8.0 0.00 0.00 0.00 63 1011.3
20260901132517 71 0 3.0 12.0 0.00 0.00 0.00 64 1011.1
20260901131517 70 0 5.0 12.0 0.00 0.00 0.00 65 1011.1
20260901130517 69 0 6.0 15.0 0.00 0.00 0.00 66 1011.0
20260901125517 68 0 4.0 12.0 0.00 0.00 0.00 68 1010.9
20260901124517 67 0 4.0 11.0 0.00 0.00 0.00 70 1010.9
20260901123517 66 0 4.0 10.0 0.00 0.00 0.00 72 1010.9
20260901122517 66 0 4.0 15.0 0.00 0.00 0.00 73 1010.8
20260901121537 65 0 5.0 14.0 0.00 0.00 0.00 76 1010.8
20260901120517 64 0 4.0 12.0 0.00 0.00 0.00 78 1010.6
20260901115517 63 0 5.0 11.0 0.00 0.00 0.00 82 1010.6
20260901114517 61 0 5.0 10.0 0.00 0.01 0.00 88 1010.6
20260901113537 60 0 4.0 15.0 0.00 0.01 0.00 88 1010.5
20260901112517 59 0 4.0 10.0 0.00 0.02 0.00 88 1010.4
20260901111537 58 0 3.0 8.0 0.00 0.02 0.00 88 1010.5
20260901110517 56 0.0 2.0 0.00 0.02 0.00 88 1010.4
20260901105517 56 0.0 2.0 0.00 0.02 0.00 88 1010.4
20260901104517 56 0.0 0.0 0.00 0.02 0.00 88 1010.3
20260901103516 56 0 1.0 2.0 0.00 0.02 0.00 88 1010.4
20260901102516 55 0 1.0 2.0 0.00 0.02 0.00 88 1010.4
20260901101516 55 0 1.0 2.0 0.00 0.02 0.00 88 1010.3
20260901100517 55 0.0 0.0 0.00 0.02 0.00 88 1010.4
20260901095517 55 0.0 1.0 0.00 0.02 0.00 88 1010.3
20260901094517 55 0 1.0 2.0 0.00 0.02 0.00 88 1010.4
20260901093517 56 0.0 0.0 0.00 0.02 0.00 88 1010.0
20260901092517 55 0.0 2.0 0.00 0.02 0.00 88 1010.0
20260901091517 55 0.0 0.0 0.00 0.02 0.00 88 1010.1
20260901090536 55 0.0 0.0 0.00 0.02 0.00 88 1010.2
20260901085516 55 0.0 0.0 0.00 0.04 0.00 88 1010.3
20260901084517 55 0.0 2.0 0.00 0.06 0.00 88 1010.3
20260901083516 54 0.0 1.0 0.00 0.06 0.00 88 1010.4
20260901082516 54 0.0 3.0 0.00 0.07 0.00 88 1010.4
20260901081537 54 0.0 2.0 0.00 0.08 0.00 88 1010.4
20260901080516 54 0 1.0 2.0 0.00 0.09 0.00 87 1010.5
20260901075516 54 0 1.0 2.0 0.00 0.10 0.00 88 1010.5
20260901074516 54 0 1.0 3.0 0.00 0.10 0.00 88 1010.5
20260901073516 55 0 2.0 2.0 0.00 0.10 0.00 87 1010.7
20260901072516 55 0 1.0 2.0 0.00 0.10 0.00 88 1010.7
20260901071516 55 113 1.0 2.0 0.00 0.10 0.00 87 1010.8
20260901070516 56 0.0 1.0 0.00 0.11 0.00 87 1010.9
20260901065536 56 0.0 0.0 0.00 0.11 0.00 87 1010.9
20260901064516 56 0.0 0.0 0.00 0.11 0.00 88 1010.9
20260901063516 56 0.0 0.0 0.00 0.12 0.00 87 1010.9
20260901062516 57 113 1.0 3.0 0.00 0.12 0.00 88 1011.0
20260901061516 57 0.0 2.0 0.00 0.12 0.00 87 1010.9
20260901060516 57 0.0 1.0 0.00 0.13 0.00 87 1010.9
20260901055516 57 0.0 1.0 0.00 0.22 0.00 87 1010.9
20260901054516 57 0.0 1.0 0.00 0.26 0.00 87 1010.9
20260901053516 58 0.0 0.0 0.00 0.26 0.00 87 1010.9
20260901052516 58 0.0 0.0 0.00 0.26 0.00 87 1010.8
20260901051516 58 0.0 2.0 0.00 0.26 0.00 87 1010.9
20260901050536 58 0.0 0.0 0.00 0.26 0.00 87 1010.9
20260901045516 58 0.0 0.0 0.00 0.27 0.26 87 1011.0
20260901044536 58 0.0 0.0 0.00 0.27 0.26 87 1010.8
20260901043536 58 0.0 0.0 0.00 0.27 0.26 87 1010.7
20260901042516 59 0.0 0.0 0.00 0.27 0.26 87 1010.8
20260901041516 60 0.0 0.0 0.00 0.27 0.26 87 1010.9
20260901040516 60 0.0 1.0 0.00 0.27 0.26 87 1010.8
20260901035516 61 0.0 2.0 0.00 0.27 0.26 87 1010.8
20260901034516 61 0.0 2.0 0.00 0.27 0.26 87 1010.8
20260901033516 61 0.0 2.0 0.00 0.27 0.26 87 1010.8
20260901032516 61 0.0 0.0 0.00 0.27 0.26 87 1010.8
20260901031516 62 0.0 2.0 0.00 0.27 0.26 87 1010.9
20260901030516 62 0.0 0.0 0.00 0.27 0.26 87 1010.9
20260901025516 62 0.0 0.0 0.00 0.27 0.26 87 1010.8
20260901024516 62 0.0 0.0 0.00 0.27 0.26 87 1010.7
20260901023516 63 0.0 1.0 0.00 0.27 0.26 87 1010.7
20260901022516 63 0.0 0.0 0.00 0.27 0.26 87 1010.8
20260901021516 63 0.0 0.0 0.00 0.27 0.26 87 1010.9
20260901020516 63 0.0 0.0 0.00 0.27 0.26 87 1010.8
20260901015516 63 0.0 1.0 0.00 0.27 0.26 87 1010.8
20260901014516 63 0.0 1.0 0.00 0.27 0.26 87 1010.6
20260901013516 64 0.0 0.0 0.00 0.27 0.26 87 1010.6
20260901012516 64 0.0 0.0 0.00 0.27 0.26 87 1010.5